Kivalina, AK

7:15 AM AKDT on May 28, 2017 (GMT -0800)
Kivalina

Weather History for PAVL - April, 2013

Change the Weather History Date:

Monday, April 29, 2013

  Actual Average (PAWN) Record (PAWN)
Temperature  
Mean Temperature 16 °F -  
Max Temperature 21 °F 29 °F 51 °F (2016)
Min Temperature 10 °F 14 °F -2 °F (2008)
Degree Days  
Heating Degree Days 50    
Moisture  
Dew Point 15 °F    
Average Humidity 86    
Maximum Humidity 93    
Minimum Humidity 78    
Precipitation  
Precipitation 0.00 in - - ()
Sea Level Pressure  
Sea Level Pressure 30.23 in    
Wind  
Wind Speed 11 mph (NNW)    
Max Wind Speed 25 mph    
Max Gust Speed -    
Visibility 6 miles    
Events Snow    
Averages and records for this station are not official NWS values.
T = Trace of Precipitation, MM = Missing Value Source: NWS Daily Summary

Daily Weather History Graph

Daily Weather History Graph

Search for Another Location

Airport or City:

Trip Planner

Search our weather history database for the weather conditions in past years. The results will help you decide how hot, cold, wet, or windy it might be!

Date:

Astronomy

Apr. 29, 2013 Rise Set
Actual Time 6:05 AM AKDT 11:49 PM AKDT
Civil Twilight 4:26 AM AKDT 1:31 AM AKDT
Nautical Twilight Sun does not set Sun does not set
Astronomical Twilight Sun does not set Sun does not set
Moon 4:38 AM AKDT (4/29) 8:31 AM AKDT (4/29)
Length of Visible Light 21h 04m
Length of Day
17h 44m
Waning Gibbous, 79% of the Moon is Illuminated
Apr 29
Waning Gibbous
May 2
Last Quarter
May 9
New
May 17
First Quarter
May 24
Full

Hourly Weather History & Observations

Time (AKDT) Temp. Windchill Dew Point Humidity Pressure Visibility Wind Dir Wind Speed Gust Speed Precip Events Conditions
12:37 AM 21.2 °F 12.6 °F 17.6 °F 86% 30.25 in 9.0 mi WNW 6.9 mph - N/A   Overcast
12:53 AM 21.0 °F 11.4 °F 17.1 °F 85% 30.25 in 10.0 mi WNW 8.1 mph - N/A   Overcast
1:53 AM 19.9 °F 11.1 °F 16.0 °F 85% 30.25 in 10.0 mi WNW 6.9 mph - N/A   Overcast
2:53 AM 19.0 °F 11.1 °F 15.1 °F 85% 30.25 in 10.0 mi WNW 5.8 mph - N/A   Overcast
3:53 AM 18.0 °F 6.1 °F 14.0 °F 84% 30.24 in 9.0 mi WNW 10.4 mph - N/A   Overcast
4:53 AM 17.1 °F 5.0 °F 14.0 °F 88% 30.24 in 7.0 mi WNW 10.4 mph - N/A   Overcast
5:53 AM 15.1 °F 2.5 °F 12.9 °F 91% 30.23 in 8.0 mi NW 10.4 mph - N/A   Mostly Cloudy
6:53 AM 12.9 °F 1.6 °F 10.9 °F 92% 30.22 in 7.0 mi NW 8.1 mph - N/A   Partly Cloudy
7:53 AM 10.9 °F 1.4 °F 9.0 °F 92% 30.22 in 6.0 mi NNW 5.8 mph - N/A   Mostly Cloudy
8:53 AM 16.0 °F 10.4 °F 12.0 °F 84% 30.22 in 7.0 mi NNW 3.5 mph - N/A   Overcast
9:53 AM 18.0 °F 11.1 °F 12.0 °F 78% 30.22 in 7.0 mi NNW 4.6 mph - N/A   Overcast
10:53 AM 18.0 °F 7.7 °F 15.1 °F 88% 30.21 in 5.0 mi NW 8.1 mph - N/A   Mostly Cloudy
11:00 AM 19.4 °F 8.6 °F 15.8 °F 86% 30.21 in 2.5 mi NW 9.2 mph - 0.00 in Snow Light Snow
11:36 AM 19.4 °F 6.6 °F 15.8 °F 86% 30.21 in 3.0 mi NW 12.7 mph - 0.00 in Snow Light Snow
11:53 AM 19.9 °F 7.9 °F 16.0 °F 85% 30.21 in 6.0 mi NW 11.5 mph - 0.00 in   Overcast
12:16 PM 19.4 °F 6.0 °F 17.6 °F 93% 30.22 in 1.8 mi NW 13.8 mph - 0.00 in Snow Light Snow
12:23 PM 21.2 °F 8.9 °F 17.6 °F 86% 30.22 in 2.0 mi NNW 12.7 mph - 0.00 in Snow Light Snow
12:35 PM 21.2 °F 8.3 °F 17.6 °F 86% 30.22 in 1.8 mi NNW 13.8 mph - 0.00 in Snow Light Snow
12:42 PM 21.2 °F 8.9 °F 17.6 °F 86% 30.22 in 3.0 mi NNW 12.7 mph - 0.00 in   Overcast
12:53 PM 21.0 °F 7.1 °F 18.0 °F 88% 30.22 in 6.0 mi NW 16.1 mph - 0.00 in   Overcast
1:53 PM 21.9 °F 9.2 °F 18.0 °F 85% 30.24 in 4.0 mi NNW 13.8 mph - 0.00 in   Overcast
2:17 PM 21.2 °F 9.5 °F 17.6 °F 86% 30.23 in 2.5 mi NNW 11.5 mph - 0.00 in Snow Light Snow
2:48 PM 21.2 °F 7.8 °F 17.6 °F 86% 30.23 in 3.0 mi NNW 15.0 mph - 0.00 in Snow Light Snow
2:53 PM 21.0 °F 7.6 °F 18.0 °F 88% 30.24 in 3.0 mi NNW 15.0 mph - 0.00 in Snow Light Snow
3:00 PM 21.2 °F 8.9 °F 17.6 °F 86% 30.24 in 2.5 mi NNW 12.7 mph - 0.00 in Snow Light Snow
3:14 PM 21.2 °F 8.3 °F 17.6 °F 86% 30.23 in 4.0 mi NNW 13.8 mph - 0.00 in Snow Light Snow
3:53 PM 21.9 °F 8.2 °F 17.1 °F 82% 30.23 in 4.0 mi NNW 16.1 mph - 0.00 in Snow Light Snow
4:53 PM 21.9 °F 8.2 °F 17.1 °F 82% 30.23 in 8.0 mi NNW 16.1 mph - 0.00 in   Partly Cloudy
5:53 PM 21.0 °F 7.1 °F 16.0 °F 81% 30.23 in 8.0 mi North 16.1 mph - N/A   Mostly Cloudy
6:53 PM 19.9 °F 4.3 °F 16.0 °F 85% 30.23 in 7.0 mi NNW 19.6 mph - N/A   Scattered Clouds
7:53 PM 19.0 °F 3.6 °F 15.1 °F 85% 30.23 in 6.0 mi North 18.4 mph - N/A   Clear
8:53 PM 17.1 °F 1.5 °F 12.9 °F 84% 30.24 in 6.0 mi North 17.3 mph - N/A   Clear
9:53 PM 15.1 °F -3.3 °F 10.9 °F 84% 30.24 in 4.0 mi NNW 23.0 mph - 0.00 in   Partly Cloudy
10:18 PM 14.0 °F -4.7 °F 10.4 °F 86% 30.24 in 2.5 mi North 23.0 mph - 0.00 in Snow Blowing Snow
10:39 PM 14.0 °F -5.5 °F 10.4 °F 86% 30.24 in 3.0 mi North 25.3 mph - 0.00 in Snow Blowing Snow
10:53 PM 14.0 °F -2.5 °F 10.0 °F 84% 30.25 in 8.0 mi North 17.3 mph - 0.00 in   Clear
11:53 PM 12.0 °F -5.6 °F 8.1 °F 84% 30.26 in 9.0 mi NNW 18.4 mph - N/A   Clear